Temperature
17 17 17 17 17 17 17 17 17 17 17 17 17 17 17 17 17 17 17 17 17 17 17 17 17 16 16 16 16 16 16 16 16 16 16 16 16 16 16 16 16 15 15
17 17 17 17 17 17 17 17 17 17 17 17 17 17 17 17 17 17 17 17 17 16 16 16 16 16 16 16 16 16 16 16 16 16 16 16 16 16 16 16 15 15 15
17 17 17 17 17 17 17 17 17 17 17 17 17 17 17 17 17 16 16 16 16 16 16 16 16 16 16 16 16 16 16 16 16 16 16 16 16 16 16 16 15 15 15
17 17 17 17 17 17 17 16 16 16 16 17 17 17 17 16 16 16 16 16 16 16 16 16 16 16 16 16 16 16 16 16 16 16 16 16 16 16 16 15 15 15 15
17 17 17 17 16 16 16 16 16 16 16 16 16 16 16 16 16 16 16 16 16 16 16 16 16 16 16 16 16 16 16 16 16 16 16 16 16 16 16 15 15 15 15
17 17 16 16 16 16 16 16 16 16 16 16 16 16 16 16 16 16 16 16 16 16 16 16 16 16 16 16 16 16 16 16 16 16 15 15 15 15 15 15 15 15 15
17 16 16 16 16 16 16 16 16 16 16 16 16 16 16 16 16 16 16 16 16 16 16 16 16 16 16 16 16 16 15 16 15 15 15 15 15 15 15 15 15 15 15
17 16 16 16 16 16 16 16 16 16 16 16 16 16 16 16 16 16 16 16 16 16 16 16 16 16 16 16 15 15 15 15 15 15 15 15 15 15 15 15 15 15 15
17 16 16 16 16 16 16 16 16 16 16 16 16 16 16 16 16 16 16 16 16 16 16 16 16 16 16 16 15 15 15 15 15 15 15 15 15 15 15 15 15 15 15
16 16 16 16 16 16 16 16 16 16 16 16 16 16 16 16 16 16 17 17 17 17 16 16 16 16 16 16 16 15 15 15 15 15 15 15 15 15 15 15 15 15 15
17 16 16 16 16 16 16 16 16 16 16 16 16 16 16 16 16 16 17 17 17 17 17 16 16 16 16 16 16 16 15 15 15 15 15 15 15 15 15 15 15 15 15
17 16 16 16 16 16 16 16 16 16 16 16 16 16 16 16 16 17 17 17 17 17 17 17 17 16 16 16 16 16 16 15 15 15 15 15 15 15 15 15 15 15 15
17 17 16 16 16 16 16 16 16 16 16 16 16 16 16 16 16 16 16 17 17 17 17 17 17 17 16 16 16 16 16 16 15 15 15 15 15 15 15 15 15 14 14
17 17 16 16 16 16 16 16 16 16 16 16 16 16 16 16 16 16 16 16 16 16 17 17 17 17 17 16 16 16 16 16 16 15 15 15 15 15 15 15 14 14 14
17 16 16 16 16 16 16 16 16 15 15 15 15 16 16 16 16 16 16 16 16 16 16 16 16 16 16 16 16 16 16 16 16 16 15 15 15 15 15 15 14 14 14
17 17 16 16 16 16 16 15 15 15 15 15 15 15 15 15 15 16 16 16 16 16 16 16 16 16 16 16 16 16 16 16 16 16 15 15 15 15 15 15 15 14 14
17 16 16 16 16 16 15 15 15 15 15 15 15 15 15 15 15 15 15 15 15 15 15 15 16 16 16 16 16 16 16 16 16 16 15 15 15 15 15 15 15 14 14
16 16 16 16 16 16 15 15 15 15 15 15 15 15 15 15 15 15 15 15 15 15 15 15 15 15 15 15 15 15 15 15 15 15 15 15 15 15 15 15 14 14 14
16 16 16 16 16 16 15 15 15 15 15 15 15 15 15 15 15 15 15 15 15 14 14 14 15 15 15 15 15 15 15 15 15 15 15 15 14 14 14 14 14 14 14
16 16 16 15 15 15 15 15 15 15 15 15 15 15 15 14 14 14 14 14 14 14 14 14 14 14 14 14 14 14 14 14 14 14 14 14 14 14 14 14 14 14 14
16 15 15 15 15 15 15 15 15 15 14 14 14 14 14 14 14 14 14 14 14 14 14 13 13 13 13 13 13 13 13 13 13 13 13 13 13 13 13 13 13 13 13
15 15 15 15 14 14 14 14 14 14 14 14 14 14 14 14 14 13 13 13 13 13 13 13 12 12 12 12 12 12 12 12 12 12 12 12 12 12 12 12 12 12 12
15 15 14 14 14 14 14 14 14 14 14 13 13 13 13 13 13 13 12 12 12 12 12 12 11 11 11 11 11 11 11 11 11 11 10 11 11 11 11 11 11 11 11
14 14 14 14 14 13 13 13 13 13 13 13 12 12 12 12 12 12 11 11 11 11 11 10 10 10 10 9 9 9 9 9 9 9 9 9 9 10 10 10 9 9 9
13 13 13 13 13 12 12 12 12 12 12 12 11 11 11 11 11 11 11 10 10 10 9 9 9 8 8 8 8 8 8 8 8 8 8 8 8 8 8 8 8 8 8
13 12 12 12 12 12 11 11 11 11 11 11 11 10 10 10 10 9 9 9 9 8 8 8 8 7 7 7 7 7 7 7 7 7 6 6 6 6 6 7 7 7 7
Wind_Speed
4 3 3 3 3 4 4 3 3 3 3 3 4 5 5 6 6 6 6 9 9 10 9 9 9 9 9 9 9 8 8 8 8 8 8 8 8 8 8 7 7 7 7
5 4 3 3 3 3 3 3 3 3 2 3 3 4 4 5 5 6 5 7 9 9 9 9 9 9 9 9 9 8 8 8 8 8 8 8 8 8 8 8 7 7 7
7 5 4 3 3 4 4 3 3 3 2 2 2 3 3 4 4 4 5 5 6 8 9 9 9 9 9 9 9 9 9 9 9 9 9 9 9 9 8 8 8 8 7
8 6 4 3 4 4 4 3 3 2 2 2 2 1 2 2 3 4 5 5 5 6 8 9 9 9 9 9 10 10 10 10 10 11 11 10 10 10 10 9 9 9 9
10 7 4 4 5 4 3 3 2 2 2 2 2 1 1 1 1 3 4 5 6 6 6 8 9 10 9 9 10 10 11 11 11 11 11 11 11 11 11 11 11 11 10
10 8 5 5 6 4 3 2 3 2 2 2 2 2 1 0 1 2 3 4 5 6 6 6 7 8 9 10 10 9 10 10 11 12 12 12 12 13 13 13 13 13 13
10 8 5 5 5 4 4 4 3 3 2 2 3 2 2 2 0 1 2 2 4 6 6 7 7 7 7 9 10 10 10 10 11 12 13 13 13 13 14 14 15 14 14
9 8 6 5 5 4 4 4 3 3 2 1 3 2 2 3 2 1 1 2 4 4 6 7 8 8 8 8 9 10 11 11 11 12 12 13 14 14 14 15 15 16 16
9 8 8 6 5 5 5 4 4 5 3 1 1 3 3 3 2 2 2 2 2 3 4 5 7 8 9 9 9 10 11 12 11 11 12 13 13 14 15 15 15 16 16
8 9 8 7 6 5 5 5 4 3 4 3 1 1 1 3 2 1 2 2 2 3 4 4 6 7 9 10 11 12 12 12 12 12 12 12 13 13 14 14 15 15 15
6 8 8 7 6 5 5 5 4 4 3 4 3 2 2 1 1 2 1 2 2 2 3 4 5 6 8 10 10 12 13 13 12 12 12 12 12 12 13 13 14 14 14
3 5 7 6 6 5 5 5 5 5 3 3 3 3 3 2 2 2 2 2 2 2 2 3 4 6 8 9 11 12 13 13 13 13 13 12 12 12 12 12 13 13 14
4 6 6 5 5 5 6 5 5 4 4 4 4 3 2 2 2 3 2 1 1 2 2 2 4 6 7 8 10 12 13 13 14 14 14 13 13 13 13 13 13 13 13
6 6 7 6 6 7 6 6 4 4 4 4 4 3 2 2 3 3 3 3 1 1 2 3 2 4 6 7 10 11 10 13 14 15 15 14 14 14 14 14 14 14 14
6 7 7 7 6 7 7 6 4 4 4 3 3 3 2 2 2 2 2 3 3 2 2 3 2 2 3 5 8 8 9 12 13 14 15 15 15 15 15 15 15 15 15
6 7 8 7 7 6 6 6 4 4 5 4 3 3 2 2 1 2 2 2 3 3 3 2 3 2 3 4 4 6 8 10 11 12 13 14 14 14 15 15 15 16 16
6 7 7 7 7 7 6 6 5 5 5 3 3 3 3 2 2 2 2 2 2 3 3 3 2 2 2 3 4 3 4 4 6 9 10 11 11 12 13 14 15 15 16
6 7 7 6 6 6 6 6 5 5 5 4 3 3 3 2 2 2 2 2 2 3 3 3 1 1 2 2 3 2 3 3 4 6 7 8 10 11 11 12 12 13 14
6 6 6 6 5 5 5 5 5 5 4 3 3 3 2 2 2 1 1 1 1 2 2 2 2 1 1 2 2 2 3 3 4 5 4 5 6 6 7 7 9 9 10
7 6 6 6 5 4 4 4 5 4 4 3 3 2 2 2 1 1 1 1 1 1 1 1 1 1 1 2 2 3 3 3 4 5 6 5 5 5 5 6 7 7 7
7 7 7 6 5 4 3 5 5 5 5 4 4 4 4 5 4 2 1 1 1 1 1 0 1 1 2 3 3 3 3 3 2 3 4 4 5 5 6 6 6 7 7
7 7 7 7 6 4 5 6 7 6 5 5 5 5 6 8 9 10 10 9 7 3 2 1 1 2 2 2 3 3 3 3 3 4 4 4 3 4 6 5 7 8 9
7 8 7 8 7 7 8 9 9 8 7 7 6 6 6 6 7 7 11 14 14 15 10 4 4 3 3 4 3 3 3 2 2 4 4 3 3 4 6 6 7 8 9
8 7 7 8 8 8 10 12 13 10 9 8 7 7 7 6 7 7 9 11 11 11 10 8 7 6 5 5 3 2 2 3 2 3 5 3 4 5 6 6 6 8 10
9 9 8 9 9 9 10 11 10 9 9 10 9 9 8 8 9 10 10 10 10 9 13 16 15 14 15 15 10 5 5 4 3 3 5 4 4 6 5 4 5 9 11
10 10 11 10 10 9 11 12 11 8 9 9 9 10 13 12 12 12 10 9 9 7 7 8 10 12 13 14 15 9 5 4 3 3 5 5 4 5 5 4 5 9 11
Wind_Direction
150 147 140 129 127 126 124 118 116 120 118 120 132 142 150 156 159 165 182 187 186 186 181 178 178 176 174 173 174 174 174 172 168 168 167 165 164 163 162 161 160 159 160
164 158 152 148 150 152 145 132 122 122 120 122 125 141 156 162 166 168 183 198 198 196 193 192 190 188 189 186 184 185 186 184 182 183 183 183 181 181 178 177 176 175 174
172 164 160 165 173 163 144 121 104 101 109 113 119 133 148 162 166 175 188 198 203 207 205 204 202 200 200 197 198 196 196 197 196 195 196 197 195 194 193 192 190 191 193
179 165 165 175 171 154 139 128 117 102 100 112 118 125 135 155 176 189 193 199 207 213 215 214 212 211 212 214 213 208 206 207 207 205 205 207 207 206 206 206 205 207 209
183 171 169 169 161 145 138 148 115 125 135 135 130 98 107 151 186 206 207 211 215 219 223 227 226 224 222 225 227 222 217 215 214 213 213 214 216 215 215 215 216 217 219
177 165 157 160 154 140 138 129 118 96 112 129 108 77 39 349 211 224 228 222 221 225 227 232 234 235 235 235 235 232 226 223 222 221 221 221 222 221 220 221 222 223 225
167 160 157 153 152 153 156 147 123 112 98 111 96 54 16 15 312 252 244 233 231 229 226 229 232 235 239 241 242 240 236 233 230 227 226 226 227 227 226 226 228 229 231
164 166 159 159 155 140 136 145 138 128 108 115 126 105 30 348 340 332 265 240 241 232 230 231 229 231 235 241 247 247 245 242 240 236 232 230 230 231 232 233 233 234 235
168 164 162 153 153 154 162 166 158 148 144 118 128 141 149 215 288 321 305 272 257 234 238 238 234 234 235 237 244 248 248 245 245 245 241 237 236 238 239 238 239 239 240
167 167 162 157 160 160 163 172 162 154 144 150 128 91 137 153 154 293 319 304 281 247 244 242 241 240 238 238 242 245 248 246 245 246 246 243 242 243 243 242 243 243 243
167 167 162 160 163 162 165 164 156 156 153 156 159 147 120 90 111 148 258 308 312 276 255 246 247 246 243 239 243 246 248 247 247 248 247 246 245 245 245 246 247 247 247
166 169 164 163 165 163 165 166 163 161 161 151 152 154 156 158 172 164 192 247 276 288 278 255 245 245 243 239 242 245 246 246 247 249 249 249 247 247 248 249 250 251 251
180 184 174 168 170 170 164 157 157 163 166 162 165 169 172 174 158 156 161 191 254 291 304 276 250 248 247 242 245 248 249 248 247 247 248 248 248 250 251 252 253 254 257
186 179 176 176 174 169 164 158 157 167 166 170 172 164 167 182 174 173 168 159 179 298 299 286 289 257 254 251 253 252 253 252 250 249 248 248 249 251 253 255 257 258 260
183 177 178 176 174 171 166 160 163 167 164 175 176 174 175 191 188 192 182 173 167 207 264 279 285 297 289 268 265 255 253 257 255 253 251 250 251 254 256 258 259 260 260
181 173 178 177 174 173 170 164 164 167 167 176 178 171 180 196 186 184 187 189 185 187 228 257 262 288 308 309 293 261 259 264 262 259 257 255 254 256 258 260 262 262 262
176 177 178 175 174 173 171 169 172 171 175 180 179 178 194 184 184 188 180 182 190 187 218 262 261 291 309 327 338 324 295 281 278 268 264 260 259 260 263 265 267 267 267
174 173 169 169 174 171 169 172 176 174 175 182 184 179 199 188 187 187 184 195 202 203 210 245 280 300 306 332 330 336 336 320 301 293 278 270 269 270 270 272 274 273 271
160 155 153 156 160 159 160 167 166 164 166 170 166 171 185 163 180 175 182 198 214 208 205 220 267 306 317 346 343 345 352 349 341 335 328 316 305 300 296 297 293 286 281
147 144 141 141 140 140 148 151 151 150 146 139 133 131 125 141 176 173 173 200 180 166 175 209 278 329 332 345 3 355 349 354 357 1 2 4 3 358 346 335 323 314 306
140 134 125 117 112 115 127 137 138 135 128 115 96 87 76 76 74 85 90 86 119 124 126 111 17 20 10 6 359 348 339 336 349 7 352 359 4 3 356 354 351 348 341
124 119 117 112 101 97 98 114 121 116 111 105 95 82 72 63 66 68 69 65 62 62 61 63 47 36 12 358 353 353 347 350 340 359 344 333 349 343 347 354 2 4 2
108 103 104 103 96 87 94 102 107 103 93 87 85 81 75 64 65 76 73 68 59 54 55 71 60 37 15 358 353 354 352 341 319 333 334 317 341 335 337 344 358 3 2
99 96 96 98 94 83 89 96 97 92 85 76 73 75 79 68 68 84 84 74 65 54 54 61 65 49 38 19 10 357 335 329 313 358 0 324 331 324 325 327 353 1 357
94 88 85 86 87 77 79 91 98 94 87 74 66 64 72 73 68 81 86 82 71 58 59 62 62 55 48 41 35 32 23 16 353 360 10 345 328 320 311 304 325 348 346
94 88 80 73 77 76 73 82 92 98 92 85 73 64 63 71 67 71 80 81 75 58 53 52 47 42 40 39 39 38 25 16 357 342 2 346 331 333 313 304 320 329 327
Height
1551 1553 1554 1556 1557 1559 1561 1562 1563 1565 1566 1568 1569 1570 1572 1573 1574 1575 1575 1576 1577 1578 1580 1581 1582 1583 1584 1585 1586 1587 1588 1589 1590 1591 1592 1593 1593 1594 1595 1596 1597 1597 1598
1552 1553 1555 1556 1558 1560 1561 1563 1564 1566 1567 1568 1569 1571 1572 1573 1574 1575 1576 1577 1578 1579 1580 1581 1582 1583 1584 1585 1586 1587 1588 1589 1590 1591 1592 1593 1594 1594 1595 1596 1597 1597 1598
1552 1554 1555 1557 1558 1560 1561 1563 1564 1566 1567 1568 1570 1571 1572 1573 1574 1575 1576 1577 1578 1578 1579 1581 1582 1583 1584 1585 1586 1587 1588 1589 1590 1591 1592 1592 1593 1594 1595 1596 1596 1597 1598
1552 1554 1555 1557 1558 1560 1561 1563 1564 1566 1567 1568 1569 1571 1572 1573 1574 1575 1576 1577 1577 1578 1579 1580 1581 1582 1583 1584 1585 1586 1587 1588 1589 1590 1591 1592 1592 1593 1594 1595 1596 1596 1597
1551 1553 1555 1557 1558 1560 1561 1563 1564 1565 1567 1568 1569 1570 1571 1572 1573 1574 1575 1576 1577 1578 1579 1580 1581 1581 1582 1583 1584 1585 1586 1587 1588 1589 1589 1590 1591 1592 1593 1594 1594 1595 1596
1551 1553 1555 1556 1558 1559 1561 1562 1564 1565 1567 1568 1569 1570 1571 1572 1573 1573 1574 1575 1576 1577 1578 1579 1580 1580 1581 1582 1583 1584 1585 1585 1586 1587 1588 1589 1589 1590 1591 1592 1593 1594 1594
1550 1552 1554 1556 1557 1559 1560 1562 1563 1565 1566 1567 1569 1570 1570 1571 1572 1573 1573 1574 1575 1576 1577 1578 1578 1579 1580 1581 1582 1582 1583 1584 1584 1585 1586 1586 1587 1588 1589 1590 1591 1592 1592
1549 1551 1553 1555 1556 1558 1559 1561 1563 1564 1565 1567 1568 1569 1570 1572 1571 1572 1572 1573 1574 1575 1576 1577 1577 1578 1579 1580 1580 1581 1581 1582 1582 1583 1583 1584 1585 1586 1587 1587 1588 1589 1590
1547 1550 1552 1553 1555 1557 1558 1560 1562 1563 1564 1566 1567 1569 1569 1569 1570 1571 1571 1572 1573 1574 1575 1575 1576 1577 1577 1578 1578 1579 1579 1580 1580 1581 1581 1582 1582 1583 1584 1584 1585 1586 1586
1545 1548 1550 1552 1554 1556 1557 1559 1561 1562 1564 1565 1566 1567 1568 1569 1569 1570 1571 1571 1572 1572 1573 1574 1574 1575 1576 1576 1577 1577 1577 1578 1578 1578 1579 1579 1580 1580 1581 1581 1582 1582 1583
1543 1546 1548 1550 1552 1554 1556 1558 1559 1561 1562 1564 1565 1566 1567 1568 1568 1569 1569 1570 1571 1571 1572 1572 1573 1573 1574 1574 1575 1575 1575 1576 1576 1576 1576 1577 1577 1577 1578 1578 1578 1579 1579
1541 1543 1546 1548 1550 1552 1554 1556 1558 1559 1561 1562 1564 1565 1566 1567 1567 1568 1568 1569 1569 1570 1570 1571 1571 1572 1572 1572 1573 1573 1573 1574 1574 1574 1574 1574 1574 1575 1575 1575 1575 1575 1576
1539 1541 1544 1546 1548 1550 1552 1554 1556 1557 1559 1561 1562 1563 1564 1565 1566 1567 1568 1568 1568 1568 1569 1569 1569 1570 1570 1570 1571 1571 1571 1571 1572 1572 1572 1572 1572 1572 1572 1572 1572 1572 1572
1537 1539 1542 1544 1546 1549 1550 1552 1554 1556 1557 1559 1560 1561 1563 1564 1564 1565 1566 1566 1566 1567 1567 1567 1567 1567 1567 1568 1568 1568 1569 1569 1569 1569 1569 1569 1569 1569 1569 1569 1569 1568 1568
1535 1537 1539 1542 1544 1546 1548 1550 1552 1554 1556 1557 1558 1560 1561 1562 1562 1563 1564 1564 1565 1564 1565 1565 1565 1565 1565 1565 1565 1565 1565 1566 1566 1566 1566 1566 1566 1566 1566 1565 1565 1565 1565
1532 1535 1537 1540 1542 1544 1546 1548 1550 1552 1553 1555 1556 1558 1559 1559 1560 1561 1561 1562 1562 1562 1562 1562 1562 1562 1562 1562 1562 1562 1562 1562 1562 1562 1563 1563 1562 1562 1562 1562 1561 1561 1560
1530 1532 1535 1537 1539 1542 1544 1546 1548 1550 1551 1553 1554 1555 1556 1557 1557 1558 1558 1559 1559 1559 1559 1559 1559 1559 1559 1558 1558 1558 1558 1558 1558 1558 1558 1558 1558 1558 1557 1557 1556 1556 1555
1527 1530 1532 1534 1537 1539 1542 1544 1546 1548 1549 1551 1552 1552 1553 1554 1554 1555 1555 1556 1556 1556 1556 1555 1555 1555 1555 1555 1554 1554 1554 1554 1554 1554 1554 1553 1553 1553 1552 1552 1551 1551 1550
1524 1527 1529 1532 1534 1537 1539 1541 1543 1545 1547 1548 1549 1550 1550 1551 1551 1552 1552 1552 1552 1552 1552 1552 1551 1551 1551 1551 1550 1550 1550 1549 1549 1549 1548 1548 1547 1547 1546 1546 1545 1544 1544
1521 1524 1527 1529 1532 1534 1537 1539 1541 1542 1544 1545 1546 1547 1547 1548 1548 1549 1549 1549 1549 1549 1549 1548 1548 1547 1547 1546 1546 1545 1545 1545 1544 1544 1543 1542 1542 1541 1540 1539 1538 1538 1537
1519 1522 1524 1527 1529 1531 1534 1536 1538 1539 1541 1542 1543 1544 1544 1545 1545 1545 1545 1545 1545 1545 1545 1544 1544 1543 1543 1542 1542 1541 1540 1539 1539 1538 1538 1537 1536 1535 1534 1533 1532 1531 1530
1517 1519 1522 1524 1527 1529 1531 1534 1535 1536 1538 1539 1540 1541 1541 1542 1542 1542 1542 1542 1542 1542 1541 1541 1540 1540 1539 1539 1538 1537 1536 1535 1534 1534 1532 1531 1531 1529 1528 1527 1526 1524 1523
1515 1517 1519 1522 1525 1527 1529 1531 1533 1534 1535 1536 1537 1538 1539 1539 1540 1540 1540 1539 1539 1539 1539 1539 1538 1537 1536 1535 1534 1533 1532 1531 1530 1529 1527 1526 1525 1524 1523 1521 1520 1518 1517
1514 1516 1518 1521 1523 1525 1527 1529 1531 1532 1533 1534 1535 1536 1537 1538 1538 1538 1538 1537 1537 1537 1536 1535 1535 1534 1534 1533 1532 1531 1529 1528 1527 1525 1523 1522 1520 1519 1518 1516 1514 1512 1511
1513 1515 1518 1519 1521 1523 1525 1528 1530 1531 1532 1533 1534 1535 1536 1536 1536 1536 1536 1536 1535 1535 1535 1534 1534 1533 1532 1531 1529 1528 1526 1525 1523 1522 1520 1518 1515 1513 1512 1511 1509 1507 1505
1514 1516 1518 1520 1522 1524 1526 1527 1529 1530 1531 1532 1533 1534 1535 1535 1535 1535 1535 1535 1535 1535 1535 1534 1533 1532 1530 1529 1527 1526 1524 1522 1520 1518 1516 1514 1512 1509 1506 1505 1504 1501 1499